カタログに戻る

COSMOS 539

運用中軍事LEO
NORAD 6319·PAYLOAD·🇷🇺 Russia

打ち上げ Dec 21, 1972 から Plesetsk Cosmodrome

Loading…

次のパス (今後24時間)

TLE

最新Source: Space-Track

元期: Sep 14, 2026, 11:07 UTC

1 06319U 72102A   26257.46325922  .00000006  00000-0  10652-3 0  9999
2 06319  74.0173 144.6065 0024358 317.1472 216.3307 12.75429675501552

AllMySatでCOSMOS 539をリアルタイム追跡

Download on the App Store